カタログに戻る

TERRA SAR X

運用中科学SSO
NORAD 31698·PAYLOAD·🇩🇪 Germany

打ち上げ Jun 15, 2007 から Baikonur Cosmodrome

Loading…

次のパス (今後24時間)

TLE

最新Source: CelesTrak SupGP

元期: Sep 15, 2026, 00:01 UTC

1 31698C 07026A   26258.00118056  .00001764  00000+0  84166-4 0  2580
2 31698  97.4473 264.4350 0001674  94.8248  74.4981 15.19150021    19

AllMySatでTERRA SAR Xをリアルタイム追跡

Download on the App Store